Grantley Adams, Barbados

5:13 AM AST on May 24, 2018 (GMT -0400)
Grantley Adams International

Weather History for TBPB - February, 2013

Change the Weather History Date:

Sunday, February 10, 2013

  Actual Average Record
Temperature  
Mean Temperature 80 °F -  
Max Temperature 84 °F 82 °F 86 °F (1998)
Min Temperature 75 °F 73 °F 71 °F (2000)
Cooling Degree Days 14    
Growing Degree Days 30 (Base 50)    
Moisture  
Dew Point 71 °F    
Average Humidity 75    
Maximum Humidity 94    
Minimum Humidity 57    
Precipitation  
Precipitation 0.00 in - - ()
Sea Level Pressure  
Sea Level Pressure 29.95 in    
Wind  
Wind Speed 16 mph ()    
Max Wind Speed 22 mph    
Max Gust Speed -    
Visibility 7.5 miles    
Events      
Averages and records for this station are not official NWS values.
T = Trace of Precipitation, MM = Missing Value Source: Averaged Metar Reports

Daily Weather History Graph

Daily Weather History Graph

Search for Another Location

Airport or City:

Astronomy

Feb. 10, 2013 Rise Set
Actual Time 6:22 AM AST 6:02 PM AST
Civil Twilight 6:00 AM AST 6:24 PM AST
Nautical Twilight 5:35 AM AST 6:49 PM AST
Astronomical Twilight 5:09 AM AST 7:14 PM AST
Moon 6:20 AM AST (2/10) 6:30 PM AST (2/10)
Length of Visible Light 12h 23m
Length of Day
11h 40m
New Moon, 0% of the Moon is Illuminated
Feb 10
New Moon
Feb 17
First Quarter
Feb 25
Full
Mar 4
Last Quarter
Mar 11
New

Hourly Weather History & Observations

Time (AST) Temp. Heat Index Dew Point Humidity Pressure Visibility Wind Dir Wind Speed Gust Speed Precip Events Conditions
12:00 AM 77.0 °F - 75.2 °F 94% 29.95 in 6.2 mi East 17.3 mph - N/A   Scattered Clouds
1:00 AM 77.0 °F - 73.4 °F 89% 29.95 in 6.2 mi East 18.4 mph - N/A   Scattered Clouds
2:00 AM 76 °F - 72 °F 85% 29.94 in 17 mi East 18.4 mph - -  
2:00 AM 77.0 °F - 73.4 °F 89% 29.95 in 6.2 mi East 18.4 mph - N/A   Partly Cloudy
3:00 AM 77.0 °F - 71.6 °F 83% 29.92 in 6.2 mi East 16.1 mph - N/A   Scattered Clouds
4:00 AM 77.0 °F - 71.6 °F 83% 29.92 in 6.2 mi East 15.0 mph - N/A   Scattered Clouds
5:00 AM 76 °F - 70 °F 77% 29.93 in 17 mi East 16.1 mph - -   Partly Cloudy
5:00 AM 77.0 °F - 69.8 °F 78% 29.92 in 6.2 mi East 16.1 mph - N/A   Scattered Clouds
6:00 AM 77.0 °F - 71.6 °F 83% 29.95 in 6.2 mi East 16.1 mph - N/A   Scattered Clouds
7:00 AM 77.0 °F - 69.8 °F 78% 29.95 in 6.2 mi East 15.0 mph - N/A   Scattered Clouds
8:00 AM 78 °F - 69 °F 66% 29.98 in 25 mi East 17.3 mph - -   Partly Cloudy
8:00 AM 78.8 °F - 68.0 °F 69% 29.98 in 6.2 mi East 17.3 mph - N/A   Scattered Clouds
9:00 AM 80.6 °F 83.9 °F 69.8 °F 70% 29.98 in 6.2 mi East 20.7 mph - N/A   Partly Cloudy
10:00 AM 82.4 °F 87.2 °F 71.6 °F 70% 30.01 in 6.2 mi East 21.9 mph - N/A   Scattered Clouds
11:00 AM 82 °F - 72 °F 65% 29.99 in 25 mi East 21.9 mph - -   Partly Cloudy
11:00 AM 82.4 °F 87.2 °F 71.6 °F 70% 29.98 in 6.2 mi East 21.9 mph - N/A   Scattered Clouds
12:00 PM 84.2 °F 89.6 °F 71.6 °F 66% 29.98 in 6.2 mi East 20.7 mph - N/A   Scattered Clouds
1:00 PM 82.4 °F 87.2 °F 71.6 °F 70% 29.95 in 6.2 mi East 20.7 mph - N/A   Partly Cloudy
2:00 PM 84 °F - 71 °F 57% 29.94 in 31 mi East 20.7 mph - -   Partly Cloudy
2:00 PM 84.2 °F 89.6 °F 71.6 °F 66% 29.92 in 6.2 mi East 20.7 mph - N/A   Scattered Clouds
3:00 PM 84.2 °F 89.6 °F 71.6 °F 66% 29.92 in 6.2 mi ESE 19.6 mph - N/A   Scattered Clouds
4:00 PM 80.6 °F 83.9 °F 69.8 °F 70% 29.92 in 6.2 mi East 18.4 mph - N/A   Scattered Clouds
5:00 PM 80 °F - 71 °F 66% 29.92 in 31 mi East 15.0 mph - -   Partly Cloudy
5:00 PM 80.6 °F 83.9 °F 69.8 °F 70% 29.92 in 6.2 mi East 15.0 mph - N/A   Scattered Clouds
6:00 PM 78.8 °F - 69.8 °F 74% 29.92 in 6.2 mi East 15.0 mph - N/A   Partly Cloudy
7:00 PM 77.0 °F - 69.8 °F 78% 29.95 in 6.2 mi East 11.5 mph - N/A   Partly Cloudy
8:00 PM 77 °F - 70 °F 74% 29.96 in 31 mi East 11.5 mph - -   Scattered Clouds
8:00 PM 77.0 °F - 69.8 °F 78% 29.95 in 6.2 mi East 11.5 mph - N/A   Partly Cloudy
9:00 PM 77.0 °F - 71.6 °F 83% 29.98 in 6.2 mi East 13.8 mph - N/A   Mostly Cloudy
10:00 PM 77.0 °F - 69.8 °F 78% 29.98 in 6.2 mi East 15.0 mph - N/A   Scattered Clouds
11:00 PM 77 °F - 71 °F 77% 29.99 in 19 mi ENE 13.8 mph - -   Partly Cloudy
11:00 PM 77.0 °F - 71.6 °F 83% 29.98 in 6.2 mi ENE 13.8 mph - N/A   Partly Cloudy